<?xml version="1.0" encoding="UTF-8" standalone="no" ?>
<gpx xmlns="http://www.topografix.com/GPX/1/1" xmlns:xsi="http://www.w3.org/2001/XMLSchema-instance" xsi:schemaLocation="http://www.topografix.com/GPX/1/1 http://www.topografix.com/GPX/1/1/gpx.xsd" version="1.1" creator="VisuGPX - https://www.visugpx.com">
  <metadata>
    <name>Le Mont St Cyr</name>
    <desc><![CDATA[LE MONT ST CYR]]></desc>
  </metadata>
  <trk>
    <name><![CDATA[Le Mont St Cyr_1]]></name>
    <trkseg>
      <trkpt lat="43.28624" lon="5.46675">
        <ele>65</ele>
        <time>2008-11-25T20:46:07.000Z</time>
      </trkpt>
      <trkpt lat="43.28624" lon="5.46678">
        <ele>65</ele>
        <time>2008-11-25T20:46:07.000Z</time>
      </trkpt>
      <trkpt lat="43.28627" lon="5.4667">
        <ele>65</ele>
        <time>2008-11-25T20:46:07.000Z</time>
      </trkpt>
      <trkpt lat="43.28629" lon="5.46644">
        <ele>64</ele>
        <time>2008-11-25T20:46:07.000Z</time>
      </trkpt>
      <trkpt lat="43.28626" lon="5.46641">
        <ele>65</ele>
        <time>2008-11-25T20:46:07.000Z</time>
      </trkpt>
      <trkpt lat="43.28591" lon="5.46633">
        <ele>68</ele>
        <time>2008-11-25T20:46:07.000Z</time>
      </trkpt>
      <trkpt lat="43.28554" lon="5.46629">
        <ele>72</ele>
        <time>2008-11-25T20:46:07.000Z</time>
      </trkpt>
      <trkpt lat="43.28516" lon="5.46637">
        <ele>75</ele>
        <time>2008-11-25T20:46:07.000Z</time>
      </trkpt>
      <trkpt lat="43.28497" lon="5.46654">
        <ele>77</ele>
        <time>2008-11-25T20:46:07.000Z</time>
      </trkpt>
      <trkpt lat="43.28474" lon="5.46661">
        <ele>78</ele>
        <time>2008-11-25T20:46:07.000Z</time>
      </trkpt>
      <trkpt lat="43.28414" lon="5.46663">
        <ele>79</ele>
        <time>2008-11-25T20:46:07.000Z</time>
      </trkpt>
      <trkpt lat="43.28347" lon="5.46645">
        <ele>82</ele>
        <time>2008-11-25T20:46:07.000Z</time>
      </trkpt>
      <trkpt lat="43.28322" lon="5.4665">
        <ele>85</ele>
        <time>2008-11-25T20:46:07.000Z</time>
      </trkpt>
      <trkpt lat="43.28273" lon="5.46664">
        <ele>93</ele>
        <time>2008-11-25T20:46:07.000Z</time>
      </trkpt>
      <trkpt lat="43.28247" lon="5.4666">
        <ele>95</ele>
        <time>2008-11-25T20:46:07.000Z</time>
      </trkpt>
      <trkpt lat="43.2823" lon="5.46662">
        <ele>96</ele>
        <time>2008-11-25T20:46:07.000Z</time>
      </trkpt>
      <trkpt lat="43.28197" lon="5.46648">
        <ele>97</ele>
        <time>2008-11-25T20:46:07.000Z</time>
      </trkpt>
      <trkpt lat="43.28172" lon="5.46624">
        <ele>97</ele>
        <time>2008-11-25T20:46:07.000Z</time>
      </trkpt>
      <trkpt lat="43.28119" lon="5.46615">
        <ele>102</ele>
        <time>2008-11-25T20:46:07.000Z</time>
      </trkpt>
      <trkpt lat="43.28059" lon="5.46595">
        <ele>102</ele>
        <time>2008-11-25T20:46:07.000Z</time>
      </trkpt>
      <trkpt lat="43.28048" lon="5.46595">
        <ele>103</ele>
        <time>2008-11-25T20:46:07.000Z</time>
      </trkpt>
      <trkpt lat="43.28035" lon="5.46601">
        <ele>106</ele>
        <time>2008-11-25T20:46:07.000Z</time>
      </trkpt>
      <trkpt lat="43.27992" lon="5.46633">
        <ele>120</ele>
        <time>2008-11-25T20:46:07.000Z</time>
      </trkpt>
      <trkpt lat="43.27978" lon="5.46632">
        <ele>121</ele>
        <time>2008-11-25T20:46:07.000Z</time>
      </trkpt>
      <trkpt lat="43.27938" lon="5.46618">
        <ele>120</ele>
        <time>2008-11-25T20:46:07.000Z</time>
      </trkpt>
      <trkpt lat="43.27915" lon="5.46615">
        <ele>123</ele>
        <time>2008-11-25T20:46:07.000Z</time>
      </trkpt>
      <trkpt lat="43.27873" lon="5.46578">
        <ele>125</ele>
        <time>2008-11-25T20:46:07.000Z</time>
      </trkpt>
      <trkpt lat="43.27852" lon="5.46573">
        <ele>130</ele>
        <time>2008-11-25T20:46:07.000Z</time>
      </trkpt>
      <trkpt lat="43.27845" lon="5.46577">
        <ele>131</ele>
        <time>2008-11-25T20:46:07.000Z</time>
      </trkpt>
      <trkpt lat="43.27839" lon="5.46597">
        <ele>136</ele>
        <time>2008-11-25T20:46:07.000Z</time>
      </trkpt>
      <trkpt lat="43.27706" lon="5.46565">
        <ele>155</ele>
        <time>2008-11-25T20:46:07.000Z</time>
      </trkpt>
      <trkpt lat="43.27676" lon="5.46591">
        <ele>165</ele>
        <time>2008-11-25T20:46:07.000Z</time>
      </trkpt>
      <trkpt lat="43.27635" lon="5.46609">
        <ele>174</ele>
        <time>2008-11-25T20:46:07.000Z</time>
      </trkpt>
      <trkpt lat="43.27625" lon="5.46612">
        <ele>175</ele>
        <time>2008-11-25T20:46:07.000Z</time>
      </trkpt>
      <trkpt lat="43.27622" lon="5.4661">
        <ele>176</ele>
        <time>2008-11-25T20:46:07.000Z</time>
      </trkpt>
      <trkpt lat="43.27609" lon="5.46622">
        <ele>176</ele>
        <time>2008-11-25T20:46:07.000Z</time>
      </trkpt>
      <trkpt lat="43.27597" lon="5.46615">
        <ele>179</ele>
        <time>2008-11-25T20:46:07.000Z</time>
      </trkpt>
      <trkpt lat="43.27588" lon="5.46606">
        <ele>183</ele>
        <time>2008-11-25T20:46:07.000Z</time>
      </trkpt>
      <trkpt lat="43.27554" lon="5.46609">
        <ele>188</ele>
        <time>2008-11-25T20:46:07.000Z</time>
      </trkpt>
      <trkpt lat="43.2753" lon="5.46614">
        <ele>191</ele>
        <time>2008-11-25T20:46:07.000Z</time>
      </trkpt>
      <trkpt lat="43.27515" lon="5.46604">
        <ele>195</ele>
        <time>2008-11-25T20:46:07.000Z</time>
      </trkpt>
      <trkpt lat="43.27501" lon="5.46641">
        <ele>199</ele>
        <time>2008-11-25T20:46:07.000Z</time>
      </trkpt>
      <trkpt lat="43.27486" lon="5.46694">
        <ele>210</ele>
        <time>2008-11-25T20:46:07.000Z</time>
      </trkpt>
      <trkpt lat="43.27478" lon="5.46711">
        <ele>216</ele>
        <time>2008-11-25T20:46:07.000Z</time>
      </trkpt>
      <trkpt lat="43.27479" lon="5.46715">
        <ele>217</ele>
        <time>2008-11-25T20:46:07.000Z</time>
      </trkpt>
      <trkpt lat="43.27468" lon="5.46727">
        <ele>220</ele>
        <time>2008-11-25T20:46:07.000Z</time>
      </trkpt>
      <trkpt lat="43.27454" lon="5.46783">
        <ele>235</ele>
        <time>2008-11-25T20:46:07.000Z</time>
      </trkpt>
      <trkpt lat="43.27451" lon="5.46816">
        <ele>244</ele>
        <time>2008-11-25T20:46:07.000Z</time>
      </trkpt>
      <trkpt lat="43.2744" lon="5.46849">
        <ele>253</ele>
        <time>2008-11-25T20:46:07.000Z</time>
      </trkpt>
      <trkpt lat="43.27427" lon="5.46875">
        <ele>260</ele>
        <time>2008-11-25T20:46:07.000Z</time>
      </trkpt>
      <trkpt lat="43.2741" lon="5.46893">
        <ele>261</ele>
        <time>2008-11-25T20:46:07.000Z</time>
      </trkpt>
      <trkpt lat="43.27383" lon="5.46902">
        <ele>262</ele>
        <time>2008-11-25T20:46:07.000Z</time>
      </trkpt>
      <trkpt lat="43.27367" lon="5.46917">
        <ele>266</ele>
        <time>2008-11-25T20:46:07.000Z</time>
      </trkpt>
      <trkpt lat="43.27354" lon="5.46918">
        <ele>268</ele>
        <time>2008-11-25T20:46:07.000Z</time>
      </trkpt>
      <trkpt lat="43.2732" lon="5.46893">
        <ele>276</ele>
        <time>2008-11-25T20:46:07.000Z</time>
      </trkpt>
      <trkpt lat="43.27301" lon="5.46897">
        <ele>282</ele>
        <time>2008-11-25T20:46:07.000Z</time>
      </trkpt>
      <trkpt lat="43.27303" lon="5.46909">
        <ele>282</ele>
        <time>2008-11-25T20:46:07.000Z</time>
      </trkpt>
      <trkpt lat="43.27325" lon="5.46938">
        <ele>281</ele>
        <time>2008-11-25T20:46:07.000Z</time>
      </trkpt>
      <trkpt lat="43.2734" lon="5.46963">
        <ele>282</ele>
        <time>2008-11-25T20:46:07.000Z</time>
      </trkpt>
      <trkpt lat="43.27351" lon="5.46972">
        <ele>281</ele>
        <time>2008-11-25T20:46:07.000Z</time>
      </trkpt>
      <trkpt lat="43.27349" lon="5.4698">
        <ele>283</ele>
        <time>2008-11-25T20:46:07.000Z</time>
      </trkpt>
      <trkpt lat="43.27316" lon="5.46964">
        <ele>291</ele>
        <time>2008-11-25T20:46:07.000Z</time>
      </trkpt>
      <trkpt lat="43.27294" lon="5.46946">
        <ele>294</ele>
        <time>2008-11-25T20:46:07.000Z</time>
      </trkpt>
      <trkpt lat="43.2728" lon="5.4693">
        <ele>296</ele>
        <time>2008-11-25T20:46:07.000Z</time>
      </trkpt>
      <trkpt lat="43.27271" lon="5.46925">
        <ele>298</ele>
        <time>2008-11-25T20:46:07.000Z</time>
      </trkpt>
      <trkpt lat="43.27264" lon="5.4691">
        <ele>297</ele>
        <time>2008-11-25T20:46:07.000Z</time>
      </trkpt>
      <trkpt lat="43.27251" lon="5.46895">
        <ele>299</ele>
        <time>2008-11-25T20:46:07.000Z</time>
      </trkpt>
      <trkpt lat="43.27255" lon="5.46912">
        <ele>301</ele>
        <time>2008-11-25T20:46:07.000Z</time>
      </trkpt>
      <trkpt lat="43.27251" lon="5.46929">
        <ele>307</ele>
        <time>2008-11-25T20:46:07.000Z</time>
      </trkpt>
      <trkpt lat="43.27257" lon="5.46933">
        <ele>306</ele>
        <time>2008-11-25T20:46:07.000Z</time>
      </trkpt>
      <trkpt lat="43.27264" lon="5.46958">
        <ele>311</ele>
        <time>2008-11-25T20:46:07.000Z</time>
      </trkpt>
      <trkpt lat="43.27274" lon="5.46973">
        <ele>311</ele>
        <time>2008-11-25T20:46:07.000Z</time>
      </trkpt>
      <trkpt lat="43.27296" lon="5.47044">
        <ele>314</ele>
        <time>2008-11-25T20:46:07.000Z</time>
      </trkpt>
      <trkpt lat="43.27298" lon="5.47071">
        <ele>320</ele>
        <time>2008-11-25T20:46:07.000Z</time>
      </trkpt>
      <trkpt lat="43.27296" lon="5.47098">
        <ele>327</ele>
        <time>2008-11-25T20:46:07.000Z</time>
      </trkpt>
      <trkpt lat="43.27299" lon="5.47129">
        <ele>337</ele>
        <time>2008-11-25T20:46:07.000Z</time>
      </trkpt>
      <trkpt lat="43.27306" lon="5.4717">
        <ele>351</ele>
        <time>2008-11-25T20:46:07.000Z</time>
      </trkpt>
      <trkpt lat="43.27316" lon="5.47201">
        <ele>350</ele>
        <time>2008-11-25T20:46:07.000Z</time>
      </trkpt>
      <trkpt lat="43.27316" lon="5.47212">
        <ele>350</ele>
        <time>2008-11-25T20:46:07.000Z</time>
      </trkpt>
      <trkpt lat="43.27295" lon="5.47218">
        <ele>346</ele>
        <time>2008-11-25T20:46:07.000Z</time>
      </trkpt>
      <trkpt lat="43.27284" lon="5.47218">
        <ele>348</ele>
        <time>2008-11-25T20:46:07.000Z</time>
      </trkpt>
      <trkpt lat="43.27265" lon="5.47231">
        <ele>348</ele>
        <time>2008-11-25T20:46:07.000Z</time>
      </trkpt>
      <trkpt lat="43.27251" lon="5.47251">
        <ele>347</ele>
        <time>2008-11-25T20:46:07.000Z</time>
      </trkpt>
      <trkpt lat="43.27237" lon="5.47256">
        <ele>350</ele>
        <time>2008-11-25T20:46:07.000Z</time>
      </trkpt>
      <trkpt lat="43.27228" lon="5.47254">
        <ele>353</ele>
        <time>2008-11-25T20:46:07.000Z</time>
      </trkpt>
      <trkpt lat="43.27225" lon="5.4725">
        <ele>355</ele>
        <time>2008-11-25T20:46:07.000Z</time>
      </trkpt>
      <trkpt lat="43.27233" lon="5.47234">
        <ele>355</ele>
        <time>2008-11-25T20:46:07.000Z</time>
      </trkpt>
      <trkpt lat="43.27233" lon="5.47212">
        <ele>359</ele>
        <time>2008-11-25T20:46:07.000Z</time>
      </trkpt>
      <trkpt lat="43.27226" lon="5.47203">
        <ele>363</ele>
        <time>2008-11-25T20:46:07.000Z</time>
      </trkpt>
      <trkpt lat="43.27171" lon="5.47162">
        <ele>383</ele>
        <time>2008-11-25T20:46:07.000Z</time>
      </trkpt>
      <trkpt lat="43.27139" lon="5.47162">
        <ele>390</ele>
        <time>2008-11-25T20:46:07.000Z</time>
      </trkpt>
      <trkpt lat="43.27127" lon="5.47147">
        <ele>395</ele>
        <time>2008-11-25T20:46:07.000Z</time>
      </trkpt>
      <trkpt lat="43.27118" lon="5.47147">
        <ele>397</ele>
        <time>2008-11-25T20:46:07.000Z</time>
      </trkpt>
      <trkpt lat="43.27068" lon="5.47128">
        <ele>409</ele>
        <time>2008-11-25T20:46:07.000Z</time>
      </trkpt>
      <trkpt lat="43.27052" lon="5.47124">
        <ele>413</ele>
        <time>2008-11-25T20:46:07.000Z</time>
      </trkpt>
      <trkpt lat="43.27033" lon="5.47108">
        <ele>419</ele>
        <time>2008-11-25T20:46:07.000Z</time>
      </trkpt>
      <trkpt lat="43.27016" lon="5.471">
        <ele>423</ele>
        <time>2008-11-25T20:46:07.000Z</time>
      </trkpt>
      <trkpt lat="43.26989" lon="5.47064">
        <ele>432</ele>
        <time>2008-11-25T20:46:07.000Z</time>
      </trkpt>
      <trkpt lat="43.26978" lon="5.47046">
        <ele>435</ele>
        <time>2008-11-25T20:46:07.000Z</time>
      </trkpt>
      <trkpt lat="43.2695" lon="5.46981">
        <ele>442</ele>
        <time>2008-11-25T20:46:07.000Z</time>
      </trkpt>
      <trkpt lat="43.26921" lon="5.46938">
        <ele>444</ele>
        <time>2008-11-25T20:46:07.000Z</time>
      </trkpt>
      <trkpt lat="43.26912" lon="5.4693">
        <ele>445</ele>
        <time>2008-11-25T20:46:07.000Z</time>
      </trkpt>
      <trkpt lat="43.26877" lon="5.46883">
        <ele>453</ele>
        <time>2008-11-25T20:46:07.000Z</time>
      </trkpt>
      <trkpt lat="43.26852" lon="5.46841">
        <ele>458</ele>
        <time>2008-11-25T20:46:07.000Z</time>
      </trkpt>
      <trkpt lat="43.26844" lon="5.46819">
        <ele>459</ele>
        <time>2008-11-25T20:46:07.000Z</time>
      </trkpt>
      <trkpt lat="43.2683" lon="5.46758">
        <ele>463</ele>
        <time>2008-11-25T20:46:07.000Z</time>
      </trkpt>
      <trkpt lat="43.26822" lon="5.46744">
        <ele>467</ele>
        <time>2008-11-25T20:46:07.000Z</time>
      </trkpt>
      <trkpt lat="43.26818" lon="5.46722">
        <ele>471</ele>
        <time>2008-11-25T20:46:07.000Z</time>
      </trkpt>
      <trkpt lat="43.2681" lon="5.467">
        <ele>475</ele>
        <time>2008-11-25T20:46:07.000Z</time>
      </trkpt>
      <trkpt lat="43.26801" lon="5.46685">
        <ele>477</ele>
        <time>2008-11-25T20:46:07.000Z</time>
      </trkpt>
      <trkpt lat="43.26754" lon="5.46642">
        <ele>488</ele>
        <time>2008-11-25T20:46:07.000Z</time>
      </trkpt>
      <trkpt lat="43.26743" lon="5.46637">
        <ele>489</ele>
        <time>2008-11-25T20:46:07.000Z</time>
      </trkpt>
      <trkpt lat="43.26729" lon="5.46636">
        <ele>490</ele>
        <time>2008-11-25T20:46:07.000Z</time>
      </trkpt>
      <trkpt lat="43.26661" lon="5.46553">
        <ele>495</ele>
        <time>2008-11-25T20:46:07.000Z</time>
      </trkpt>
      <trkpt lat="43.26614" lon="5.4652">
        <ele>494</ele>
        <time>2008-11-25T20:46:07.000Z</time>
      </trkpt>
      <trkpt lat="43.26598" lon="5.46496">
        <ele>494</ele>
        <time>2008-11-25T20:46:07.000Z</time>
      </trkpt>
      <trkpt lat="43.2658" lon="5.46478">
        <ele>494</ele>
        <time>2008-11-25T20:46:07.000Z</time>
      </trkpt>
      <trkpt lat="43.2656" lon="5.46451">
        <ele>500</ele>
        <time>2008-11-25T20:46:07.000Z</time>
      </trkpt>
      <trkpt lat="43.26555" lon="5.46449">
        <ele>501</ele>
        <time>2008-11-25T20:46:07.000Z</time>
      </trkpt>
      <trkpt lat="43.26543" lon="5.46422">
        <ele>498</ele>
        <time>2008-11-25T20:46:07.000Z</time>
      </trkpt>
      <trkpt lat="43.26534" lon="5.46412">
        <ele>498</ele>
        <time>2008-11-25T20:46:07.000Z</time>
      </trkpt>
      <trkpt lat="43.2653" lon="5.46411">
        <ele>499</ele>
        <time>2008-11-25T20:46:07.000Z</time>
      </trkpt>
      <trkpt lat="43.26505" lon="5.46381">
        <ele>504</ele>
        <time>2008-11-25T20:46:07.000Z</time>
      </trkpt>
      <trkpt lat="43.26495" lon="5.46362">
        <ele>502</ele>
        <time>2008-11-25T20:46:07.000Z</time>
      </trkpt>
      <trkpt lat="43.26487" lon="5.4636">
        <ele>503</ele>
        <time>2008-11-25T20:46:07.000Z</time>
      </trkpt>
      <trkpt lat="43.26485" lon="5.4635">
        <ele>503</ele>
        <time>2008-11-25T20:46:07.000Z</time>
      </trkpt>
      <trkpt lat="43.26474" lon="5.4634">
        <ele>505</ele>
        <time>2008-11-25T20:46:07.000Z</time>
      </trkpt>
      <trkpt lat="43.26464" lon="5.46336">
        <ele>507</ele>
        <time>2008-11-25T20:46:07.000Z</time>
      </trkpt>
      <trkpt lat="43.2645" lon="5.46317">
        <ele>511</ele>
        <time>2008-11-25T20:46:07.000Z</time>
      </trkpt>
      <trkpt lat="43.26398" lon="5.46308">
        <ele>518</ele>
        <time>2008-11-25T20:46:07.000Z</time>
      </trkpt>
      <trkpt lat="43.26372" lon="5.46309">
        <ele>520</ele>
        <time>2008-11-25T20:46:07.000Z</time>
      </trkpt>
      <trkpt lat="43.26334" lon="5.4632">
        <ele>522</ele>
        <time>2008-11-25T20:46:07.000Z</time>
      </trkpt>
      <trkpt lat="43.26284" lon="5.46338">
        <ele>527</ele>
        <time>2008-11-25T20:46:07.000Z</time>
      </trkpt>
      <trkpt lat="43.26276" lon="5.46343">
        <ele>528</ele>
        <time>2008-11-25T20:46:07.000Z</time>
      </trkpt>
      <trkpt lat="43.26256" lon="5.46366">
        <ele>532</ele>
        <time>2008-11-25T20:46:07.000Z</time>
      </trkpt>
      <trkpt lat="43.2624" lon="5.46381">
        <ele>533</ele>
        <time>2008-11-25T20:46:07.000Z</time>
      </trkpt>
      <trkpt lat="43.26218" lon="5.46392">
        <ele>536</ele>
        <time>2008-11-25T20:46:07.000Z</time>
      </trkpt>
      <trkpt lat="43.26185" lon="5.46411">
        <ele>540</ele>
        <time>2008-11-25T20:46:07.000Z</time>
      </trkpt>
      <trkpt lat="43.26178" lon="5.46407">
        <ele>542</ele>
        <time>2008-11-25T20:46:07.000Z</time>
      </trkpt>
      <trkpt lat="43.26153" lon="5.46421">
        <ele>545</ele>
        <time>2008-11-25T20:46:07.000Z</time>
      </trkpt>
      <trkpt lat="43.26136" lon="5.46423">
        <ele>550</ele>
        <time>2008-11-25T20:46:07.000Z</time>
      </trkpt>
      <trkpt lat="43.26127" lon="5.46426">
        <ele>552</ele>
        <time>2008-11-25T20:46:07.000Z</time>
      </trkpt>
      <trkpt lat="43.2611" lon="5.46441">
        <ele>553</ele>
        <time>2008-11-25T20:46:07.000Z</time>
      </trkpt>
      <trkpt lat="43.26104" lon="5.46445">
        <ele>554</ele>
        <time>2008-11-25T20:46:07.000Z</time>
      </trkpt>
      <trkpt lat="43.26089" lon="5.46446">
        <ele>559</ele>
        <time>2008-11-25T20:46:07.000Z</time>
      </trkpt>
      <trkpt lat="43.26075" lon="5.46457">
        <ele>563</ele>
        <time>2008-11-25T20:46:07.000Z</time>
      </trkpt>
      <trkpt lat="43.26052" lon="5.46468">
        <ele>570</ele>
        <time>2008-11-25T20:46:07.000Z</time>
      </trkpt>
      <trkpt lat="43.26047" lon="5.46481">
        <ele>571</ele>
        <time>2008-11-25T20:46:07.000Z</time>
      </trkpt>
      <trkpt lat="43.26025" lon="5.46493">
        <ele>580</ele>
        <time>2008-11-25T20:46:07.000Z</time>
      </trkpt>
      <trkpt lat="43.2599" lon="5.46525">
        <ele>592</ele>
        <time>2008-11-25T20:46:07.000Z</time>
      </trkpt>
      <trkpt lat="43.25964" lon="5.46532">
        <ele>600</ele>
        <time>2008-11-25T20:46:07.000Z</time>
      </trkpt>
      <trkpt lat="43.25957" lon="5.4654">
        <ele>599</ele>
        <time>2008-11-25T20:46:07.000Z</time>
      </trkpt>
      <trkpt lat="43.2595" lon="5.4654">
        <ele>600</ele>
        <time>2008-11-25T20:46:07.000Z</time>
      </trkpt>
      <trkpt lat="43.25948" lon="5.46549">
        <ele>598</ele>
        <time>2008-11-25T20:46:07.000Z</time>
      </trkpt>
      <trkpt lat="43.25962" lon="5.46544">
        <ele>598</ele>
        <time>2008-11-25T20:46:07.000Z</time>
      </trkpt>
      <trkpt lat="43.25965" lon="5.46538">
        <ele>599</ele>
        <time>2008-11-25T20:46:07.000Z</time>
      </trkpt>
      <trkpt lat="43.25964" lon="5.46533">
        <ele>600</ele>
        <time>2008-11-25T20:46:07.000Z</time>
      </trkpt>
      <trkpt lat="43.2599" lon="5.4653">
        <ele>591</ele>
        <time>2008-11-25T20:46:07.000Z</time>
      </trkpt>
      <trkpt lat="43.26003" lon="5.46519">
        <ele>587</ele>
        <time>2008-11-25T20:46:07.000Z</time>
      </trkpt>
      <trkpt lat="43.26009" lon="5.4652">
        <ele>585</ele>
        <time>2008-11-25T20:46:07.000Z</time>
      </trkpt>
      <trkpt lat="43.26028" lon="5.46502">
        <ele>577</ele>
        <time>2008-11-25T20:46:07.000Z</time>
      </trkpt>
      <trkpt lat="43.26054" lon="5.46464">
        <ele>570</ele>
        <time>2008-11-25T20:46:07.000Z</time>
      </trkpt>
      <trkpt lat="43.2607" lon="5.46455">
        <ele>565</ele>
        <time>2008-11-25T20:46:07.000Z</time>
      </trkpt>
      <trkpt lat="43.26106" lon="5.46444">
        <ele>554</ele>
        <time>2008-11-25T20:46:07.000Z</time>
      </trkpt>
      <trkpt lat="43.26111" lon="5.46437">
        <ele>554</ele>
        <time>2008-11-25T20:46:07.000Z</time>
      </trkpt>
      <trkpt lat="43.26116" lon="5.46435">
        <ele>553</ele>
        <time>2008-11-25T20:46:07.000Z</time>
      </trkpt>
      <trkpt lat="43.2612" lon="5.4643">
        <ele>553</ele>
        <time>2008-11-25T20:46:07.000Z</time>
      </trkpt>
      <trkpt lat="43.26132" lon="5.46425">
        <ele>551</ele>
        <time>2008-11-25T20:46:07.000Z</time>
      </trkpt>
      <trkpt lat="43.26154" lon="5.46422">
        <ele>545</ele>
        <time>2008-11-25T20:46:07.000Z</time>
      </trkpt>
      <trkpt lat="43.26181" lon="5.4641">
        <ele>541</ele>
        <time>2008-11-25T20:46:07.000Z</time>
      </trkpt>
      <trkpt lat="43.26199" lon="5.46405">
        <ele>538</ele>
        <time>2008-11-25T20:46:07.000Z</time>
      </trkpt>
      <trkpt lat="43.26216" lon="5.46392">
        <ele>536</ele>
        <time>2008-11-25T20:46:07.000Z</time>
      </trkpt>
      <trkpt lat="43.26237" lon="5.46382">
        <ele>533</ele>
        <time>2008-11-25T20:46:07.000Z</time>
      </trkpt>
      <trkpt lat="43.2626" lon="5.46361">
        <ele>531</ele>
        <time>2008-11-25T20:46:07.000Z</time>
      </trkpt>
      <trkpt lat="43.26278" lon="5.46342">
        <ele>528</ele>
        <time>2008-11-25T20:46:07.000Z</time>
      </trkpt>
      <trkpt lat="43.26283" lon="5.46332">
        <ele>529</ele>
        <time>2008-11-25T20:46:07.000Z</time>
      </trkpt>
      <trkpt lat="43.26307" lon="5.46332">
        <ele>524</ele>
        <time>2008-11-25T20:46:07.000Z</time>
      </trkpt>
      <trkpt lat="43.26354" lon="5.46313">
        <ele>521</ele>
        <time>2008-11-25T20:46:07.000Z</time>
      </trkpt>
      <trkpt lat="43.26381" lon="5.4631">
        <ele>518</ele>
        <time>2008-11-25T20:46:07.000Z</time>
      </trkpt>
      <trkpt lat="43.26427" lon="5.46313">
        <ele>515</ele>
        <time>2008-11-25T20:46:07.000Z</time>
      </trkpt>
      <trkpt lat="43.26454" lon="5.46318">
        <ele>510</ele>
        <time>2008-11-25T20:46:07.000Z</time>
      </trkpt>
      <trkpt lat="43.26462" lon="5.46329">
        <ele>508</ele>
        <time>2008-11-25T20:46:07.000Z</time>
      </trkpt>
      <trkpt lat="43.26465" lon="5.46336">
        <ele>507</ele>
        <time>2008-11-25T20:46:07.000Z</time>
      </trkpt>
      <trkpt lat="43.26474" lon="5.46338">
        <ele>505</ele>
        <time>2008-11-25T20:46:07.000Z</time>
      </trkpt>
      <trkpt lat="43.26486" lon="5.46351">
        <ele>503</ele>
        <time>2008-11-25T20:46:07.000Z</time>
      </trkpt>
      <trkpt lat="43.26487" lon="5.46358">
        <ele>503</ele>
        <time>2008-11-25T20:46:07.000Z</time>
      </trkpt>
      <trkpt lat="43.26496" lon="5.46363">
        <ele>502</ele>
        <time>2008-11-25T20:46:07.000Z</time>
      </trkpt>
      <trkpt lat="43.26527" lon="5.46407">
        <ele>499</ele>
        <time>2008-11-25T20:46:07.000Z</time>
      </trkpt>
      <trkpt lat="43.26543" lon="5.4642">
        <ele>498</ele>
        <time>2008-11-25T20:46:07.000Z</time>
      </trkpt>
      <trkpt lat="43.26557" lon="5.46447">
        <ele>502</ele>
        <time>2008-11-25T20:46:07.000Z</time>
      </trkpt>
      <trkpt lat="43.26617" lon="5.4652">
        <ele>494</ele>
        <time>2008-11-25T20:46:07.000Z</time>
      </trkpt>
      <trkpt lat="43.26637" lon="5.46534">
        <ele>495</ele>
        <time>2008-11-25T20:46:07.000Z</time>
      </trkpt>
      <trkpt lat="43.26663" lon="5.46557">
        <ele>496</ele>
        <time>2008-11-25T20:46:07.000Z</time>
      </trkpt>
      <trkpt lat="43.26725" lon="5.4663">
        <ele>490</ele>
        <time>2008-11-25T20:46:07.000Z</time>
      </trkpt>
      <trkpt lat="43.2674" lon="5.46635">
        <ele>489</ele>
        <time>2008-11-25T20:46:07.000Z</time>
      </trkpt>
      <trkpt lat="43.26762" lon="5.46651">
        <ele>486</ele>
        <time>2008-11-25T20:46:07.000Z</time>
      </trkpt>
      <trkpt lat="43.26796" lon="5.4668">
        <ele>479</ele>
        <time>2008-11-25T20:46:07.000Z</time>
      </trkpt>
      <trkpt lat="43.26814" lon="5.4671">
        <ele>473</ele>
        <time>2008-11-25T20:46:07.000Z</time>
      </trkpt>
      <trkpt lat="43.26823" lon="5.46742">
        <ele>467</ele>
        <time>2008-11-25T20:46:07.000Z</time>
      </trkpt>
      <trkpt lat="43.26827" lon="5.46747">
        <ele>465</ele>
        <time>2008-11-25T20:46:07.000Z</time>
      </trkpt>
      <trkpt lat="43.2683" lon="5.46764">
        <ele>462</ele>
        <time>2008-11-25T20:46:07.000Z</time>
      </trkpt>
      <trkpt lat="43.26836" lon="5.46776">
        <ele>460</ele>
        <time>2008-11-25T20:46:07.000Z</time>
      </trkpt>
      <trkpt lat="43.26844" lon="5.46822">
        <ele>459</ele>
        <time>2008-11-25T20:46:07.000Z</time>
      </trkpt>
      <trkpt lat="43.2686" lon="5.46856">
        <ele>458</ele>
        <time>2008-11-25T20:46:07.000Z</time>
      </trkpt>
      <trkpt lat="43.26905" lon="5.4692">
        <ele>447</ele>
        <time>2008-11-25T20:46:07.000Z</time>
      </trkpt>
      <trkpt lat="43.26928" lon="5.46948">
        <ele>444</ele>
        <time>2008-11-25T20:46:07.000Z</time>
      </trkpt>
      <trkpt lat="43.26948" lon="5.46976">
        <ele>442</ele>
        <time>2008-11-25T20:46:07.000Z</time>
      </trkpt>
      <trkpt lat="43.26992" lon="5.47068">
        <ele>431</ele>
        <time>2008-11-25T20:46:07.000Z</time>
      </trkpt>
      <trkpt lat="43.27" lon="5.4708">
        <ele>429</ele>
        <time>2008-11-25T20:46:07.000Z</time>
      </trkpt>
      <trkpt lat="43.27029" lon="5.47102">
        <ele>421</ele>
        <time>2008-11-25T20:46:07.000Z</time>
      </trkpt>
      <trkpt lat="43.2707" lon="5.47126">
        <ele>410</ele>
        <time>2008-11-25T20:46:07.000Z</time>
      </trkpt>
      <trkpt lat="43.27098" lon="5.47135">
        <ele>402</ele>
        <time>2008-11-25T20:46:07.000Z</time>
      </trkpt>
      <trkpt lat="43.2712" lon="5.47148">
        <ele>396</ele>
        <time>2008-11-25T20:46:07.000Z</time>
      </trkpt>
      <trkpt lat="43.27126" lon="5.47144">
        <ele>395</ele>
        <time>2008-11-25T20:46:07.000Z</time>
      </trkpt>
      <trkpt lat="43.2714" lon="5.47155">
        <ele>391</ele>
        <time>2008-11-25T20:46:07.000Z</time>
      </trkpt>
      <trkpt lat="43.27156" lon="5.47152">
        <ele>388</ele>
        <time>2008-11-25T20:46:07.000Z</time>
      </trkpt>
      <trkpt lat="43.27174" lon="5.47161">
        <ele>383</ele>
        <time>2008-11-25T20:46:07.000Z</time>
      </trkpt>
      <trkpt lat="43.27174" lon="5.47165">
        <ele>382</ele>
        <time>2008-11-25T20:46:07.000Z</time>
      </trkpt>
      <trkpt lat="43.27206" lon="5.47188">
        <ele>372</ele>
        <time>2008-11-25T20:46:07.000Z</time>
      </trkpt>
      <trkpt lat="43.27214" lon="5.47196">
        <ele>368</ele>
        <time>2008-11-25T20:46:07.000Z</time>
      </trkpt>
      <trkpt lat="43.27234" lon="5.47205">
        <ele>360</ele>
        <time>2008-11-25T20:46:07.000Z</time>
      </trkpt>
      <trkpt lat="43.27223" lon="5.47252">
        <ele>355</ele>
        <time>2008-11-25T20:46:07.000Z</time>
      </trkpt>
      <trkpt lat="43.2724" lon="5.47257">
        <ele>349</ele>
        <time>2008-11-25T20:46:07.000Z</time>
      </trkpt>
      <trkpt lat="43.27247" lon="5.47254">
        <ele>348</ele>
        <time>2008-11-25T20:46:07.000Z</time>
      </trkpt>
      <trkpt lat="43.27257" lon="5.47239">
        <ele>348</ele>
        <time>2008-11-25T20:46:07.000Z</time>
      </trkpt>
      <trkpt lat="43.27285" lon="5.47218">
        <ele>347</ele>
        <time>2008-11-25T20:46:07.000Z</time>
      </trkpt>
      <trkpt lat="43.27307" lon="5.47208">
        <ele>348</ele>
        <time>2008-11-25T20:46:07.000Z</time>
      </trkpt>
      <trkpt lat="43.27334" lon="5.47225">
        <ele>355</ele>
        <time>2008-11-25T20:46:07.000Z</time>
      </trkpt>
      <trkpt lat="43.27362" lon="5.47229">
        <ele>364</ele>
        <time>2008-11-25T20:46:07.000Z</time>
      </trkpt>
      <trkpt lat="43.27375" lon="5.47227">
        <ele>369</ele>
        <time>2008-11-25T20:46:07.000Z</time>
      </trkpt>
      <trkpt lat="43.2741" lon="5.47205">
        <ele>363</ele>
        <time>2008-11-25T20:46:07.000Z</time>
      </trkpt>
      <trkpt lat="43.27427" lon="5.47188">
        <ele>357</ele>
        <time>2008-11-25T20:46:07.000Z</time>
      </trkpt>
      <trkpt lat="43.27447" lon="5.47161">
        <ele>349</ele>
        <time>2008-11-25T20:46:07.000Z</time>
      </trkpt>
      <trkpt lat="43.27456" lon="5.47131">
        <ele>350</ele>
        <time>2008-11-25T20:46:07.000Z</time>
      </trkpt>
      <trkpt lat="43.27475" lon="5.47121">
        <ele>354</ele>
        <time>2008-11-25T20:46:07.000Z</time>
      </trkpt>
      <trkpt lat="43.27489" lon="5.47104">
        <ele>353</ele>
        <time>2008-11-25T20:46:07.000Z</time>
      </trkpt>
      <trkpt lat="43.275" lon="5.4708">
        <ele>347</ele>
        <time>2008-11-25T20:46:07.000Z</time>
      </trkpt>
      <trkpt lat="43.27516" lon="5.47066">
        <ele>346</ele>
        <time>2008-11-25T20:46:07.000Z</time>
      </trkpt>
      <trkpt lat="43.27577" lon="5.47045">
        <ele>334</ele>
        <time>2008-11-25T20:46:07.000Z</time>
      </trkpt>
      <trkpt lat="43.27591" lon="5.47043">
        <ele>328</ele>
        <time>2008-11-25T20:46:07.000Z</time>
      </trkpt>
      <trkpt lat="43.27613" lon="5.47056">
        <ele>326</ele>
        <time>2008-11-25T20:46:07.000Z</time>
      </trkpt>
      <trkpt lat="43.27627" lon="5.47082">
        <ele>320</ele>
        <time>2008-11-25T20:46:07.000Z</time>
      </trkpt>
      <trkpt lat="43.27663" lon="5.47096">
        <ele>307</ele>
        <time>2008-11-25T20:46:07.000Z</time>
      </trkpt>
      <trkpt lat="43.27667" lon="5.47116">
        <ele>303</ele>
        <time>2008-11-25T20:46:07.000Z</time>
      </trkpt>
      <trkpt lat="43.27656" lon="5.47155">
        <ele>299</ele>
        <time>2008-11-25T20:46:07.000Z</time>
      </trkpt>
      <trkpt lat="43.27637" lon="5.47177">
        <ele>295</ele>
        <time>2008-11-25T20:46:07.000Z</time>
      </trkpt>
      <trkpt lat="43.27642" lon="5.47183">
        <ele>292</ele>
        <time>2008-11-25T20:46:07.000Z</time>
      </trkpt>
      <trkpt lat="43.27674" lon="5.47189">
        <ele>282</ele>
        <time>2008-11-25T20:46:07.000Z</time>
      </trkpt>
      <trkpt lat="43.27718" lon="5.47138">
        <ele>273</ele>
        <time>2008-11-25T20:46:07.000Z</time>
      </trkpt>
      <trkpt lat="43.27734" lon="5.47124">
        <ele>269</ele>
        <time>2008-11-25T20:46:07.000Z</time>
      </trkpt>
      <trkpt lat="43.27754" lon="5.47096">
        <ele>272</ele>
        <time>2008-11-25T20:46:07.000Z</time>
      </trkpt>
      <trkpt lat="43.2777" lon="5.47082">
        <ele>282</ele>
        <time>2008-11-25T20:46:07.000Z</time>
      </trkpt>
      <trkpt lat="43.27781" lon="5.4708">
        <ele>286</ele>
        <time>2008-11-25T20:46:07.000Z</time>
      </trkpt>
      <trkpt lat="43.27807" lon="5.47045">
        <ele>279</ele>
        <time>2008-11-25T20:46:07.000Z</time>
      </trkpt>
      <trkpt lat="43.27818" lon="5.47042">
        <ele>272</ele>
        <time>2008-11-25T20:46:07.000Z</time>
      </trkpt>
      <trkpt lat="43.27834" lon="5.47051">
        <ele>268</ele>
        <time>2008-11-25T20:46:07.000Z</time>
      </trkpt>
      <trkpt lat="43.27847" lon="5.47068">
        <ele>269</ele>
        <time>2008-11-25T20:46:07.000Z</time>
      </trkpt>
      <trkpt lat="43.27863" lon="5.47084">
        <ele>269</ele>
        <time>2008-11-25T20:46:07.000Z</time>
      </trkpt>
      <trkpt lat="43.27879" lon="5.47113">
        <ele>277</ele>
        <time>2008-11-25T20:46:07.000Z</time>
      </trkpt>
      <trkpt lat="43.27886" lon="5.4711">
        <ele>273</ele>
        <time>2008-11-25T20:46:07.000Z</time>
      </trkpt>
      <trkpt lat="43.27899" lon="5.47137">
        <ele>285</ele>
        <time>2008-11-25T20:46:07.000Z</time>
      </trkpt>
      <trkpt lat="43.27885" lon="5.47138">
        <ele>284</ele>
        <time>2008-11-25T20:46:07.000Z</time>
      </trkpt>
      <trkpt lat="43.27895" lon="5.47149">
        <ele>283</ele>
        <time>2008-11-25T20:46:07.000Z</time>
      </trkpt>
      <trkpt lat="43.27885" lon="5.47155">
        <ele>281</ele>
        <time>2008-11-25T20:46:07.000Z</time>
      </trkpt>
      <trkpt lat="43.2788" lon="5.47153">
        <ele>282</ele>
        <time>2008-11-25T20:46:07.000Z</time>
      </trkpt>
      <trkpt lat="43.2789" lon="5.47159">
        <ele>281</ele>
        <time>2008-11-25T20:46:07.000Z</time>
      </trkpt>
      <trkpt lat="43.27896" lon="5.47168">
        <ele>279</ele>
        <time>2008-11-25T20:46:07.000Z</time>
      </trkpt>
      <trkpt lat="43.27929" lon="5.47186">
        <ele>274</ele>
        <time>2008-11-25T20:46:07.000Z</time>
      </trkpt>
      <trkpt lat="43.27966" lon="5.47184">
        <ele>270</ele>
        <time>2008-11-25T20:46:07.000Z</time>
      </trkpt>
      <trkpt lat="43.27993" lon="5.47174">
        <ele>271</ele>
        <time>2008-11-25T20:46:07.000Z</time>
      </trkpt>
      <trkpt lat="43.28006" lon="5.47179">
        <ele>267</ele>
        <time>2008-11-25T20:46:07.000Z</time>
      </trkpt>
      <trkpt lat="43.27997" lon="5.47179">
        <ele>268</ele>
        <time>2008-11-25T20:46:07.000Z</time>
      </trkpt>
      <trkpt lat="43.2799" lon="5.47173">
        <ele>272</ele>
        <time>2008-11-25T20:46:07.000Z</time>
      </trkpt>
      <trkpt lat="43.27975" lon="5.47182">
        <ele>270</ele>
        <time>2008-11-25T20:46:07.000Z</time>
      </trkpt>
      <trkpt lat="43.27971" lon="5.47173">
        <ele>275</ele>
        <time>2008-11-25T20:46:07.000Z</time>
      </trkpt>
      <trkpt lat="43.27991" lon="5.47155">
        <ele>279</ele>
        <time>2008-11-25T20:46:07.000Z</time>
      </trkpt>
      <trkpt lat="43.28026" lon="5.47134">
        <ele>270</ele>
        <time>2008-11-25T20:46:07.000Z</time>
      </trkpt>
      <trkpt lat="43.28042" lon="5.47133">
        <ele>259</ele>
        <time>2008-11-25T20:46:07.000Z</time>
      </trkpt>
      <trkpt lat="43.28044" lon="5.47138">
        <ele>258</ele>
        <time>2008-11-25T20:46:07.000Z</time>
      </trkpt>
      <trkpt lat="43.28053" lon="5.47126">
        <ele>252</ele>
        <time>2008-11-25T20:46:07.000Z</time>
      </trkpt>
      <trkpt lat="43.28062" lon="5.47079">
        <ele>247</ele>
        <time>2008-11-25T20:46:07.000Z</time>
      </trkpt>
      <trkpt lat="43.28073" lon="5.47075">
        <ele>241</ele>
        <time>2008-11-25T20:46:07.000Z</time>
      </trkpt>
      <trkpt lat="43.28091" lon="5.471">
        <ele>230</ele>
        <time>2008-11-25T20:46:07.000Z</time>
      </trkpt>
      <trkpt lat="43.28094" lon="5.47119">
        <ele>227</ele>
        <time>2008-11-25T20:46:07.000Z</time>
      </trkpt>
      <trkpt lat="43.28108" lon="5.47145">
        <ele>218</ele>
        <time>2008-11-25T20:46:07.000Z</time>
      </trkpt>
      <trkpt lat="43.28101" lon="5.47155">
        <ele>220</ele>
        <time>2008-11-25T20:46:07.000Z</time>
      </trkpt>
      <trkpt lat="43.28101" lon="5.47195">
        <ele>215</ele>
        <time>2008-11-25T20:46:07.000Z</time>
      </trkpt>
      <trkpt lat="43.28106" lon="5.47258">
        <ele>208</ele>
        <time>2008-11-25T20:46:07.000Z</time>
      </trkpt>
      <trkpt lat="43.28101" lon="5.47299">
        <ele>208</ele>
        <time>2008-11-25T20:46:07.000Z</time>
      </trkpt>
      <trkpt lat="43.28106" lon="5.47336">
        <ele>205</ele>
        <time>2008-11-25T20:46:07.000Z</time>
      </trkpt>
      <trkpt lat="43.28117" lon="5.47363">
        <ele>195</ele>
        <time>2008-11-25T20:46:07.000Z</time>
      </trkpt>
      <trkpt lat="43.28128" lon="5.47378">
        <ele>189</ele>
        <time>2008-11-25T20:46:07.000Z</time>
      </trkpt>
      <trkpt lat="43.28159" lon="5.47376">
        <ele>183</ele>
        <time>2008-11-25T20:46:07.000Z</time>
      </trkpt>
      <trkpt lat="43.28168" lon="5.47355">
        <ele>182</ele>
        <time>2008-11-25T20:46:07.000Z</time>
      </trkpt>
      <trkpt lat="43.28167" lon="5.47277">
        <ele>180</ele>
        <time>2008-11-25T20:46:07.000Z</time>
      </trkpt>
      <trkpt lat="43.28176" lon="5.47249">
        <ele>176</ele>
        <time>2008-11-25T20:46:07.000Z</time>
      </trkpt>
      <trkpt lat="43.28206" lon="5.47199">
        <ele>164</ele>
        <time>2008-11-25T20:46:07.000Z</time>
      </trkpt>
      <trkpt lat="43.28216" lon="5.47168">
        <ele>164</ele>
        <time>2008-11-25T20:46:07.000Z</time>
      </trkpt>
      <trkpt lat="43.28217" lon="5.4713">
        <ele>166</ele>
        <time>2008-11-25T20:46:07.000Z</time>
      </trkpt>
      <trkpt lat="43.28204" lon="5.47058">
        <ele>168</ele>
        <time>2008-11-25T20:46:07.000Z</time>
      </trkpt>
      <trkpt lat="43.28204" lon="5.47007">
        <ele>162</ele>
        <time>2008-11-25T20:46:07.000Z</time>
      </trkpt>
      <trkpt lat="43.28208" lon="5.46974">
        <ele>158</ele>
        <time>2008-11-25T20:46:07.000Z</time>
      </trkpt>
      <trkpt lat="43.28205" lon="5.46957">
        <ele>158</ele>
        <time>2008-11-25T20:46:07.000Z</time>
      </trkpt>
      <trkpt lat="43.28212" lon="5.46942">
        <ele>155</ele>
        <time>2008-11-25T20:46:07.000Z</time>
      </trkpt>
      <trkpt lat="43.28212" lon="5.46904">
        <ele>153</ele>
        <time>2008-11-25T20:46:07.000Z</time>
      </trkpt>
      <trkpt lat="43.28208" lon="5.46882">
        <ele>152</ele>
        <time>2008-11-25T20:46:07.000Z</time>
      </trkpt>
      <trkpt lat="43.28211" lon="5.46863">
        <ele>149</ele>
        <time>2008-11-25T20:46:07.000Z</time>
      </trkpt>
      <trkpt lat="43.28219" lon="5.46878">
        <ele>147</ele>
        <time>2008-11-25T20:46:07.000Z</time>
      </trkpt>
      <trkpt lat="43.28235" lon="5.46898">
        <ele>142</ele>
        <time>2008-11-25T20:46:07.000Z</time>
      </trkpt>
      <trkpt lat="43.28255" lon="5.46939">
        <ele>137</ele>
        <time>2008-11-25T20:46:07.000Z</time>
      </trkpt>
      <trkpt lat="43.2827" lon="5.46962">
        <ele>133</ele>
        <time>2008-11-25T20:46:07.000Z</time>
      </trkpt>
      <trkpt lat="43.2827" lon="5.46975">
        <ele>134</ele>
        <time>2008-11-25T20:46:07.000Z</time>
      </trkpt>
      <trkpt lat="43.2828" lon="5.47009">
        <ele>132</ele>
        <time>2008-11-25T20:46:07.000Z</time>
      </trkpt>
      <trkpt lat="43.28283" lon="5.47036">
        <ele>133</ele>
        <time>2008-11-25T20:46:07.000Z</time>
      </trkpt>
      <trkpt lat="43.28299" lon="5.47042">
        <ele>127</ele>
        <time>2008-11-25T20:46:07.000Z</time>
      </trkpt>
      <trkpt lat="43.28302" lon="5.47026">
        <ele>125</ele>
        <time>2008-11-25T20:46:07.000Z</time>
      </trkpt>
      <trkpt lat="43.28313" lon="5.47">
        <ele>120</ele>
        <time>2008-11-25T20:46:07.000Z</time>
      </trkpt>
      <trkpt lat="43.28313" lon="5.46968">
        <ele>119</ele>
        <time>2008-11-25T20:46:07.000Z</time>
      </trkpt>
      <trkpt lat="43.2831" lon="5.4691">
        <ele>117</ele>
        <time>2008-11-25T20:46:07.000Z</time>
      </trkpt>
      <trkpt lat="43.28304" lon="5.46877">
        <ele>116</ele>
        <time>2008-11-25T20:46:07.000Z</time>
      </trkpt>
      <trkpt lat="43.28304" lon="5.46864">
        <ele>115</ele>
        <time>2008-11-25T20:46:07.000Z</time>
      </trkpt>
      <trkpt lat="43.28293" lon="5.46843">
        <ele>116</ele>
        <time>2008-11-25T20:46:07.000Z</time>
      </trkpt>
      <trkpt lat="43.2827" lon="5.46774">
        <ele>114</ele>
        <time>2008-11-25T20:46:07.000Z</time>
      </trkpt>
      <trkpt lat="43.28249" lon="5.46758">
        <ele>118</ele>
        <time>2008-11-25T20:46:07.000Z</time>
      </trkpt>
      <trkpt lat="43.28242" lon="5.46758">
        <ele>119</ele>
        <time>2008-11-25T20:46:07.000Z</time>
      </trkpt>
      <trkpt lat="43.28205" lon="5.46738">
        <ele>123</ele>
        <time>2008-11-25T20:46:07.000Z</time>
      </trkpt>
      <trkpt lat="43.28179" lon="5.46734">
        <ele>124</ele>
        <time>2008-11-25T20:46:07.000Z</time>
      </trkpt>
      <trkpt lat="43.28178" lon="5.4672">
        <ele>119</ele>
        <time>2008-11-25T20:46:07.000Z</time>
      </trkpt>
      <trkpt lat="43.28154" lon="5.46697">
        <ele>114</ele>
        <time>2008-11-25T20:46:07.000Z</time>
      </trkpt>
      <trkpt lat="43.28134" lon="5.46688">
        <ele>116</ele>
        <time>2008-11-25T20:46:07.000Z</time>
      </trkpt>
      <trkpt lat="43.28129" lon="5.4669">
        <ele>117</ele>
        <time>2008-11-25T20:46:07.000Z</time>
      </trkpt>
      <trkpt lat="43.28096" lon="5.46691">
        <ele>120</ele>
        <time>2008-11-25T20:46:07.000Z</time>
      </trkpt>
      <trkpt lat="43.28073" lon="5.46696">
        <ele>122</ele>
        <time>2008-11-25T20:46:07.000Z</time>
      </trkpt>
      <trkpt lat="43.28084" lon="5.46654">
        <ele>111</ele>
        <time>2008-11-25T20:46:07.000Z</time>
      </trkpt>
      <trkpt lat="43.28094" lon="5.46639">
        <ele>108</ele>
        <time>2008-11-25T20:46:07.000Z</time>
      </trkpt>
      <trkpt lat="43.28098" lon="5.46607">
        <ele>102</ele>
        <time>2008-11-25T20:46:07.000Z</time>
      </trkpt>
      <trkpt lat="43.28183" lon="5.46632">
        <ele>97</ele>
        <time>2008-11-25T20:46:07.000Z</time>
      </trkpt>
      <trkpt lat="43.28229" lon="5.46656">
        <ele>96</ele>
        <time>2008-11-25T20:46:07.000Z</time>
      </trkpt>
      <trkpt lat="43.28244" lon="5.46656">
        <ele>94</ele>
        <time>2008-11-25T20:46:07.000Z</time>
      </trkpt>
      <trkpt lat="43.28262" lon="5.46662">
        <ele>94</ele>
        <time>2008-11-25T20:46:07.000Z</time>
      </trkpt>
      <trkpt lat="43.28281" lon="5.46659">
        <ele>91</ele>
        <time>2008-11-25T20:46:07.000Z</time>
      </trkpt>
      <trkpt lat="43.28298" lon="5.46665">
        <ele>90</ele>
        <time>2008-11-25T20:46:07.000Z</time>
      </trkpt>
      <trkpt lat="43.28331" lon="5.46649">
        <ele>84</ele>
        <time>2008-11-25T20:46:07.000Z</time>
      </trkpt>
      <trkpt lat="43.28354" lon="5.46647">
        <ele>82</ele>
        <time>2008-11-25T20:46:07.000Z</time>
      </trkpt>
      <trkpt lat="43.28372" lon="5.46651">
        <ele>81</ele>
        <time>2008-11-25T20:46:07.000Z</time>
      </trkpt>
      <trkpt lat="43.28386" lon="5.46659">
        <ele>80</ele>
        <time>2008-11-25T20:46:07.000Z</time>
      </trkpt>
      <trkpt lat="43.28436" lon="5.46668">
        <ele>78</ele>
        <time>2008-11-25T20:46:07.000Z</time>
      </trkpt>
      <trkpt lat="43.28464" lon="5.4667">
        <ele>78</ele>
        <time>2008-11-25T20:46:07.000Z</time>
      </trkpt>
      <trkpt lat="43.2854" lon="5.46623">
        <ele>73</ele>
        <time>2008-11-25T20:46:07.000Z</time>
      </trkpt>
      <trkpt lat="43.28563" lon="5.46623">
        <ele>71</ele>
        <time>2008-11-25T20:46:07.000Z</time>
      </trkpt>
      <trkpt lat="43.28618" lon="5.46642">
        <ele>65</ele>
        <time>2008-11-25T20:46:07.000Z</time>
      </trkpt>
      <trkpt lat="43.28624" lon="5.46646">
        <ele>65</ele>
        <time>2008-11-25T20:46:07.000Z</time>
      </trkpt>
      <trkpt lat="43.28622" lon="5.46678">
        <ele>66</ele>
        <time>2008-11-25T20:46:07.000Z</time>
      </trkpt>
    </trkseg>
  </trk>
</gpx>